Weather History for KNMM - December, 2012

Change the Weather History Date:

Saturday, December 15, 2012

  Actual Average Record
Temperature  
Mean Temperature 57 °F -  
Max Temperature 68 °F 55 °F 75 °F (2007)
Min Temperature 46 °F 36 °F 21 °F (2004)
Degree Days  
Heating Degree Days 8    
Growing Degree Days 7 (Base 50)    
Moisture  
Dew Point 51 °F    
Average Humidity 78    
Maximum Humidity 90    
Minimum Humidity 63    
Precipitation  
Precipitation 0.00 in - - ()
Sea Level Pressure  
Sea Level Pressure 30.09 in    
Wind  
Wind Speed 4 mph (SE)    
Max Wind Speed 13 mph    
Max Gust Speed 18 mph    
Visibility 10 miles    
Events      
Averages and records for this station are not official NWS values.
T = Trace of Precipitation, MM = Missing Value Source: NWS Daily Summary

Daily Weather History Graph

Daily Weather History Graph

Search for Another Location

Airport or City:

Trip Planner

Search our weather history database for the weather conditions in past years. The results will help you decide how hot, cold, wet, or windy it might be!

Date:

Astronomy

Dec. 15, 2012 Rise Set
Actual Time 6:48 AM CST 4:50 PM CST
Civil Twilight 6:21 AM CST 5:17 PM CST
Nautical Twilight 5:51 AM CST 5:48 PM CST
Astronomical Twilight 5:21 AM CST 6:18 PM CST
Moon 8:47 AM CST (12/15) 7:47 PM CST (12/15)
Length of Visible Light 10h 55m
Length of Day
10h 01m
Waxing Crescent, 8% of the Moon is Illuminated
Dec 15
Waxing Crescent
Dec 19
First Quarter
Dec 28
Full
Jan 4
Last Quarter
Jan 11
New

Hourly Weather History & Observations

Time (CST) Temp. Dew Point Humidity Pressure Visibility Wind Dir Wind Speed Gust Speed Precip Events Conditions
12:56 AM 48.9 °F 43.0 °F 80% 30.19 in 10.0 mi Calm Calm - N/A   Overcast
1:56 AM 46.9 °F 44.1 °F 90% 30.17 in 10.0 mi Calm Calm - 0.00 in   Scattered Clouds
2:56 AM 48.0 °F 44.1 °F 86% 30.16 in 10.0 mi Calm Calm - N/A   Overcast
3:56 AM 46.9 °F 43.0 °F 86% 30.13 in 10.0 mi ESE 6.9 mph - N/A   Overcast
4:56 AM 46.9 °F 44.1 °F 90% 30.14 in 10.0 mi SSE 4.6 mph - N/A   Overcast
5:56 AM 48.0 °F 44.1 °F 86% 30.16 in 10.0 mi East 6.9 mph - N/A   Overcast
6:56 AM 48.0 °F 44.1 °F 86% 30.17 in 10.0 mi ESE 5.8 mph - N/A   Overcast
7:56 AM 48.0 °F 44.1 °F 86% 30.18 in 10.0 mi SE 3.5 mph - N/A   Overcast
8:56 AM 50.0 °F 45.0 °F 83% 30.18 in 10.0 mi SE 5.8 mph - N/A   Mostly Cloudy
9:05 AM 51.8 °F 44.6 °F 76% 30.15 in 10.0 mi ESE 5.8 mph - N/A   Mostly Cloudy
9:31 AM 51.8 °F 46.4 °F 82% 30.14 in 10.0 mi SE 5.8 mph - N/A   Overcast
9:56 AM 55.0 °F 48.0 °F 77% 30.17 in 10.0 mi SE 8.1 mph - N/A   Overcast
10:56 AM 60.1 °F 50.0 °F 69% 30.15 in 10.0 mi SE 8.1 mph - N/A   Overcast
11:56 AM 63.0 °F 51.1 °F 65% 30.10 in 10.0 mi SSE 11.5 mph 17.3 mph N/A   Mostly Cloudy
12:32 PM 64.4 °F 51.8 °F 64% 30.05 in 10.0 mi SSE 5.8 mph - N/A   Overcast
12:56 PM 64.0 °F 53.1 °F 67% 30.07 in 10.0 mi SSE 6.9 mph - N/A   Overcast
1:22 PM 64.4 °F 53.6 °F 68% 30.02 in 10.0 mi SE 6.9 mph - N/A   Overcast
1:56 PM 64.9 °F 54.0 °F 68% 30.04 in 10.0 mi SE 5.8 mph - N/A   Mostly Cloudy
2:56 PM 68.0 °F 55.0 °F 63% 30.01 in 10.0 mi SSE 12.7 mph 18.4 mph N/A   Partly Cloudy
3:56 PM 68.0 °F 55.9 °F 65% 30.02 in 10.0 mi South 6.9 mph - N/A   Scattered Clouds
4:56 PM 64.9 °F 55.9 °F 73% 30.03 in 10.0 mi South 5.8 mph - N/A   Clear
5:56 PM 63.0 °F 55.9 °F 78% 30.02 in 10.0 mi SE 4.6 mph - N/A   Mostly Cloudy
6:56 PM 62.1 °F 55.9 °F 80% 30.03 in 10.0 mi Calm Calm - N/A   Overcast
7:56 PM 62.1 °F 57.0 °F 84% 30.03 in 10.0 mi SE 4.6 mph - N/A   Overcast
8:56 PM 62.1 °F 57.0 °F 84% 30.03 in 10.0 mi SE 3.5 mph - N/A   Scattered Clouds
9:56 PM 63.0 °F 57.9 °F 84% 30.02 in 10.0 mi South 6.9 mph - N/A   Clear
10:56 PM 64.9 °F 59.0 °F 81% 30.00 in 10.0 mi South 9.2 mph 16.1 mph N/A   Mostly Cloudy
11:56 PM 64.9 °F 59.0 °F 81% 30.00 in 10.0 mi South 6.9 mph - N/A   Overcast